This is the latest recevied weather packets stored in our database for station/object W5DRO-13. If no packets are shown the sender has not sent any weather packets the latest 10 day(s).
| Time | Temp. | Humidity | Pressure | Rain* | Wind** | Luminosity | Snow |
|---|---|---|---|---|---|---|---|
| 1777592065 | 18.89° C | 41% | 1016.6 hPa | 0 mm | - | - | - |
| 1777591763 | 18.89° C | 42% | 1016.8 hPa | 0 mm | - | - | - |
| 1777591458 | 18.89° C | 41% | 1016.8 hPa | 0 mm | - | - | - |
| 1777591155 | 18.89° C | 41% | 1016.3 hPa | 0 mm | - | - | - |
| 1777590849 | 19.44° C | 41% | 1016.6 hPa | 0 mm | - | - | - |
| 1777590546 | 19.44° C | 39% | 1016.4 hPa | 0 mm | - | - | - |
| 1777590242 | 19.44° C | 38% | 1016.4 hPa | 0 mm | - | - | - |
| 1777589940 | 20° C | 40% | 1016.5 hPa | 0 mm | - | - | - |
| 1777589636 | 20° C | 40% | 1016.4 hPa | 0 mm | - | - | - |
| 1777589333 | 20.56° C | 40% | 1016.4 hPa | 0 mm | - | - | - |
| 1777589030 | 20.56° C | 41% | 1016 hPa | 0 mm | - | - | - |
| 1777588726 | 20.56° C | 41% | 1016.2 hPa | 0 mm | - | - | - |
| 1777588422 | 21.11° C | 42% | 1016 hPa | 0 mm | - | - | - |
| 1777588117 | 21.11° C | 42% | 1016.1 hPa | 0 mm | - | - | - |
| 1777587814 | 20.56° C | 42% | 1016.1 hPa | 0 mm | - | - | - |
| 1777587513 | 21.11° C | 41% | 1016.1 hPa | 0 mm | - | - | - |
| 1777587209 | 21.11° C | 40% | 1016 hPa | 0 mm | - | - | - |
| 1777586905 | 20.56° C | 39% | 1016 hPa | 0 mm | - | - | - |
| 1777586602 | 20.56° C | 42% | 1016.1 hPa | 0 mm | - | - | - |
| 1777586297 | 20.56° C | 39% | 1015.9 hPa | 0 mm | - | - | - |
| 1777585995 | 20.56° C | 38% | 1015.9 hPa | 0 mm | - | - | - |
| 1777585690 | 20.56° C | 35% | 1016.1 hPa | 0 mm | - | - | - |
| 1777585390 | 20° C | 39% | 1016.2 hPa | 0 mm | - | - | - |
| 1777585085 | 20° C | 38% | 1016.1 hPa | 0 mm | - | - | - |
| 1777584781 | 20.56° C | 38% | 1016.1 hPa | 0 mm | - | - | - |
* Rain latest hour (hover to see other rain measurements)
** Current wind speed in m/s (hover to see current wind gust speed)